Content
SEND FEEDBACK

Daily
Averages
Monthly
Summary
United States of America

MERIZO, GUAM


Home > North America > United States > Guam
Elevation: 3 meters     Latitude: 13 14N     Longitude: 144 39E

WEATHER
 
SELECT A DAY
Number of Records: 342,637;   Date Range: 1/1/95 - 9/20/14
 
SHARE

PRINT THIS DATA

[ ← Previous Day ]
WEATHER ALMANAC - 9 NOVEMBER, 2013
[ Next Day → ]
[ °F ]   °C
Weather ElementAverageHighLow
Temperature26.9 °C29.5 °C (12:58 pm)25 °C (8:42 pm)
Dewpoint24.7 °C25.3 °C (1:58 pm)23.8 °C (8:58 pm)
Humidity87.9 %100 % (8:42 pm)75 % (12:58 pm)
Barometer1011.2 hPa1013.2 hPa (8:08 am)1009.5 hPa (1:58 pm)
Wind Speed30.4 km/h38.9 km/h (7:28 am)
Wind Gust51.8 km/h (7:28 am)
Weather ElementAverage
Visibility15.4 km
Wind DirectionENE (61.4 °)

Weather ElementTotal
Precipitation1.02 mm
Cooling Degree Days8.9 (Base 18.3)
Growing Degree Days17.3 (Base 10)
Averaged from 73 records on 9 November, 2013
WEATHER CONDITIONS BREAKOUT
WIND DIRECTION BREAKOUT
WEATHER BY HOUR - 9 NOVEMBER, 2013
[ °F ]   °C
Local TimeTemperatureDewpointHumidityBarometerVisibilityWind DirectionWind SpeedGust SpeedPrecipitationEventsConditions
12:23 AM27 °C25 °C89 %1012.2 hPa16.1 kmNE (50°)29.6 km/h44.4 km/hRainLight Rain
12:32 AM26 °C25 °C94 %1012.2 hPa16.1 kmENE (60°)33.3 km/hPartly Cloudy
12:58 AM26.7 °C24.9 °C90 %1011.2 hPa16.1 kmNE (50°)35.2 km/h42.6 km/h0 mmPartly Cloudy
1:18 AM27 °C25 °C89 %1011.9 hPa16.1 kmENE (60°)35.2 km/h46.3 km/hRainLight Rain
1:26 AM26 °C25 °C94 %1011.9 hPa16.1 kmENE (70°)27.8 km/hScattered Clouds
1:31 AM26 °C25 °C94 %1011.9 hPa16.1 kmENE (60°)31.5 km/hMostly Cloudy
1:58 AM26.9 °C24.4 °C86 %1010.5 hPa16.1 kmENE (60°)33.3 km/h48.1 km/h0 mmMostly Cloudy
2:13 AM27 °C25 °C89 %1011.5 hPa16.1 kmNE (50°)35.2 km/h44.4 km/hScattered Clouds
2:18 AM27 °C25 °C89 %1011.5 hPa16.1 kmNE (50°)35.2 km/h44.4 km/hMostly Cloudy
2:28 AM27 °C25 °C89 %1011.5 hPa16.1 kmNE (50°)33.3 km/h42.6 km/hScattered Clouds
2:58 AM26.8 °C24.5 °C87 %1010.5 hPa16.1 kmENE (60°)29.6 km/h46.3 km/hScattered Clouds
3:03 AM27 °C25 °C89 %1011.5 hPa16.1 kmNE (50°)31.5 km/hMostly Cloudy
3:13 AM27 °C24 °C84 %1011.2 hPa16.1 kmENE (60°)33.3 km/hMostly Cloudy
3:28 AM27 °C24 °C84 %1011.2 hPa16.1 kmNE (50°)35.2 km/hScattered Clouds
3:48 AM27 °C24 °C84 %1011.2 hPa16.1 kmNE (50°)33.3 km/hMostly Cloudy
3:53 AM27 °C24 °C84 %1011.2 hPa16.1 kmENE (60°)33.3 km/h42.6 km/hScattered Clouds
3:58 AM26.6 °C23.9 °C85 %1010.2 hPa16.1 kmENE (60°)31.5 km/h42.6 km/hScattered Clouds
4:48 AM27 °C24 °C84 %1011.2 hPa16.1 kmENE (60°)29.6 km/h38.9 km/hMostly Cloudy
4:53 AM27 °C24 °C84 %1011.2 hPa16.1 kmENE (60°)31.5 km/h38.9 km/hScattered Clouds
4:58 AM26.7 °C24.1 °C86 %1010.2 hPa16.1 kmENE (60°)29.6 km/hPartly Cloudy
5:58 AM26.8 °C24.9 °C89 %1010.5 hPa16.1 kmNE (50°)31.5 km/hPartly Cloudy
6:58 AM26.8 °C24.6 °C88 %1011.2 hPa16.1 kmNE (50°)33.3 km/h46.3 km/hPartly Cloudy
7:28 AM27 °C25 °C89 %1012.5 hPa6.4 kmEast (80°)38.9 km/h51.8 km/hRainLight Rain
7:41 AM26 °C25 °C94 %1012.9 hPa14.5 kmENE (70°)35.2 km/h44.4 km/hScattered Clouds
7:46 AM26 °C25 °C94 %1012.9 hPa16.1 kmENE (60°)29.6 km/h42.6 km/hMostly Cloudy
7:51 AM26 °C25 °C94 %1012.9 hPa16.1 kmENE (60°)27.8 km/h42.6 km/hMostly Cloudy
7:58 AM25.7 °C24.6 °C94 %1011.9 hPa16.1 kmENE (70°)25.9 km/h0.76 mmScattered Clouds
8:08 AM26 °C25 °C94 %1013.2 hPa12.9 kmENE (60°)33.3 km/h50.1 km/hMostly Cloudy
8:13 AM26 °C25 °C94 %1013.2 hPa11.3 kmENE (60°)29.6 km/h50.1 km/hMostly Cloudy
8:15 AM26 °C25 °C94 %1013.2 hPa11.3 kmENE (60°)29.6 km/h50.1 km/hRainLight Rain
8:17 AM26 °C25 °C94 %1013.2 hPa14.5 kmENE (60°)29.6 km/hMostly Cloudy
8:58 AM26.7 °C25 °C90 %1012.2 hPa16.1 kmENE (60°)24.1 km/h0 mmScattered Clouds
9:58 AM28.3 °C25.2 °C83 %1012.2 hPa16.1 kmENE (70°)25.9 km/hScattered Clouds
10:48 AM28 °C25 °C84 %1012.5 hPa16.1 kmENE (60°)29.6 km/hMostly Cloudy
10:58 AM29.1 °C24.9 °C78 %1011.5 hPa16.1 kmENE (70°)33.3 km/h42.6 km/hScattered Clouds
11:58 AM29.4 °C25.2 °C78 %1010.5 hPa16.1 kmENE (60°)35.2 km/h40.7 km/hPartly Cloudy
12:58 PM29.5 °C24.6 °C75 %1009.8 hPa16.1 kmENE (60°)31.5 km/hPartly Cloudy
1:53 PM29 °C25 °C79 %1010.5 hPa16.1 kmENE (60°)33.3 km/hMostly Cloudy
1:58 PM28.9 °C25.3 °C81 %1009.5 hPa16.1 kmNE (50°)29.6 km/h42.6 km/hMostly Cloudy
2:03 PM29 °C25 °C79 %1010.5 hPa16.1 kmNE (50°)37 km/h42.6 km/hMostly Cloudy
2:13 PM29 °C25 °C79 %1010.2 hPa16.1 kmENE (60°)29.6 km/h40.7 km/hMostly Cloudy
2:18 PM29 °C25 °C79 %1010.2 hPa16.1 kmENE (60°)29.6 km/h40.7 km/hScattered Clouds
2:38 PM29 °C25 °C79 %1010.2 hPa16.1 kmENE (60°)33.3 km/h38.9 km/hMostly Cloudy
2:43 PM29 °C25 °C79 %1009.8 hPa16.1 kmENE (60°)29.6 km/h38.9 km/hScattered Clouds
2:58 PM28.7 °C24.8 °C79 %1009.5 hPa16.1 kmENE (60°)31.5 km/hMostly Cloudy
3:18 PM29 °C25 °C79 %1009.8 hPa16.1 kmENE (60°)33.3 km/h40.7 km/hMostly Cloudy
3:23 PM28 °C25 °C84 %1009.8 hPa16.1 kmENE (60°)33.3 km/hScattered Clouds
3:43 PM27 °C25 °C89 %1009.8 hPa16.1 kmEast (90°)31.5 km/h50.1 km/hMostly Cloudy
3:44 PM27 °C25 °C89 %1009.8 hPa16.1 kmEast (90°)33.3 km/h50.1 km/hLight Drizzle
3:49 PM26 °C25 °C94 %1010.2 hPa14.5 kmEast (90°)24.1 km/h50.1 km/hLight Drizzle
3:55 PM26 °C24 °C89 %1010.2 hPa16.1 kmEast (80°)20.4 km/h42.6 km/hScattered Clouds
3:58 PM26.3 °C24.4 °C89 %1009.5 hPa16.1 kmENE (70°)24.1 km/h35.2 km/h0 mmScattered Clouds
4:58 PM27.7 °C24.9 °C85 %1009.5 hPa16.1 kmENE (70°)27.8 km/h42.6 km/hScattered Clouds
5:58 PM26.8 °C24.7 °C88 %1009.5 hPa16.1 kmENE (60°)20.4 km/hPartly Cloudy
6:04 PM27 °C25 °C89 %1010.5 hPa11.3 kmNE (50°)24.1 km/h37 km/hRainRain
6:14 PM26 °C25 °C94 %1010.8 hPa14.5 kmENE (60°)25.9 km/hPartly Cloudy
6:54 PM27 °C25 °C89 %1011.2 hPa16.1 kmENE (60°)27.8 km/hMostly Cloudy
6:58 PM27 °C25 °C89 %1010.2 hPa16.1 kmENE (60°)31.5 km/h44.4 km/h0 mmMostly Cloudy
7:38 PM27 °C24 °C84 %1011.9 hPa16.1 kmENE (60°)33.3 km/h40.7 km/hMostly Cloudy
7:53 PM26 °C25 °C94 %1011.9 hPa16.1 kmENE (60°)25.9 km/h35.2 km/hScattered Clouds
7:58 PM26.3 °C24.7 °C91 %1011.2 hPa16.1 kmENE (60°)25.9 km/h35.2 km/hPartly Cloudy
8:23 PM27 °C25 °C89 %1012.2 hPa16.1 kmENE (60°)27.8 km/h42.6 km/hMostly Cloudy
8:28 PM27 °C25 °C89 %1012.2 hPa16.1 kmENE (60°)38.9 km/h50.1 km/hMostly Cloudy
8:37 PM26 °C25 °C94 %1012.5 hPa12.9 kmENE (60°)33.3 km/h51.8 km/hRainLight Rain
8:42 PM25 °C25 °C100 %1012.5 hPa11.3 kmNE (50°)25.9 km/h51.8 km/hRainLight Rain
8:47 PM25 °C24 °C94 %1012.2 hPa14.5 kmNE (50°)24.1 km/hRainLight Rain
8:48 PM25 °C24 °C94 %1012.2 hPa14.5 kmENE (60°)24.1 km/hMostly Cloudy
8:58 PM25.1 °C23.8 °C92 %1011.2 hPa16.1 kmENE (60°)25.9 km/h0 mmScattered Clouds
9:20 PM26 °C25 °C94 %1012.5 hPa12.9 kmENE (60°)35.2 km/h46.3 km/hRainLight Rain
9:39 PM26 °C25 °C94 %1012.2 hPa16.1 kmENE (60°)24.1 km/hMostly Cloudy
9:58 PM26.4 °C24.8 °C91 %1011.2 hPa16.1 kmENE (70°)33.3 km/h40.7 km/h0.25 mmMostly Cloudy
10:58 PM26 °C24 °C89 %1011.2 hPa16.1 kmEast (80°)27.8 km/h46.3 km/hScattered Clouds
11:58 PM26 °C24 °C89 %1010.5 hPa16.1 kmEast (80°)25.9 km/h40.7 km/hScattered Clouds
Hourly data recorded from PGUA, located 0 kilometers away from Merizo, Guam







STORIES FROM OUR PARTNERS